Погода в Мугалжаре

Погода в Мугалжаре : погода сейчас, прогноз погоды и архив. Всё, что Вы хотите узнать о погоде в Мугалжаре!

Хотите узнать прогноз погоды в Мугалжаре? Тогда Вам сюда: Погода в Мугалжаре

Поиск расширенной информации на нашем сайте:

Другие новости

Новости СМИ2

Главная страница сайта

Новости сайта

02.10.2013

Напоминаем, что на нашем новом сайте вы можете получить высокодетализированные прогнозы погоды по пунктам России, СНГ и мира (включающие важные для авиации метеовеличины, такие как направление и скорость ветра, видимость, явления погоды, количество и форма облачности, нижняя и верхняя граница облачности), а также ознакомиться с разнообразными материалами по авиационной метеорологии и подборкой полезных ссылок на эту тему.

Сайт Метеоцентр.Азия посвящён разработке технологий оптимизации авиаметеорологического обслуживания, включая проектирование и перспективное создание нескольких автоматизированных авиаметеорологических систем:
- система выпуска высокодетальных прогностических карт явлений погоды для нижнего воздушного пространства по России и ближнему зарубежью;
- система верификации прогнозов TAF (выпускаемых синоптиками официальных АМСГ РФ и ближнего зарубежья) и AUTOTAF (выпускаемых сайтом Метеоцентр.Азия) - выявление ошибок, онлайн-сопоставление с фактической погодой METAR, автоматическое внесение коррективов в прогнозы при резком отклонении фактической погоды от прогноза, подсчёт оправдываемости прогнозов по элементам и в целом;
- система обработки, анализа и отображения авиаметеорологической информации для применения провайдерами метеорологической информации.

Рекомендуем: отзывы кровмаркет

Погода в Мугалжаре - сегодня

Время (UTC), дата Ветер
(°,м/с) 
Видим.   Явления Облачность Т
(°С)
Тd
(°С)
f(%) Тe
(°С)
Pmin
(гПа)
dP
(гПа)
Po
(мм)
O2
(г/м3)
Тmin Tmax R s Состояние
почвы
03 20.04.17 110 (В) 20000 м    9/0 верхняя 
[Ci fib]
+10.6 +4.1 64 +10  1014.3  -0.2  725  281           
06 20.04.17 110 (В) 20000 м    9/0 верхняя 
[Ci ing]
+19.7 +10.3 55 +22  1011.4  -1.3  724  270  +7         
09 20.04.17 110 (В) 20000 м    9/0 верхняя 
[Ci ing]
+22.6 +10.9 48 +26  1008.9  -1.9  723  267           
12 20.04.17 110 (В) 20000 м    9/0 средняя 
[Ac trans]
+23.1 +9.9 43 +25  1007.4  -1.4  722  266           
15 20.04.17 тихо ()   20000 м    9/0 средняя 
[Ac trans]
+19.4 +7.7 47 +19  1007.9  -0.2  722  270    +23.5       
18 20.04.17 тихо ()   20000 м    9/0 средняя 
[Ac trans]
+14.2 +4 50 +14  1008.8  0.1  722  276    +23.5       
21 20.04.17 тихо ()   20000 м    9/0 средняя 
[Ac trans]
+11.8 +2.9 54 +12  1008.5  -0.4  721  278           
00 21.04.17 270 (З) 20000 м    9/0 средняя 
[Ac trans]
+9.6 +2.3 60 +9  1009.4  0.4  722  281           
03 21.04.17 290 (З) 20000 м    9/0 средняя 
[Ac trans]
+6.8 +0.1 62 +6  1011  0.9  722  284           
06 21.04.17 340 (С) 20000 м    9/0 верхняя 
[Ci fib]
+9.5 +3.8 68 +8  1011.2  0.8  723  281  +6.4         
09 21.04.17 340 (С) 20000 м    ясно 
+13.4 +5.8 60 +12  1011.2  0.5  723  277           
12 21.04.17 340 (С) 20000 м    ясно 
+13.7 +4.6 54 +13  1012.3  1.1  724  277           
15 21.04.17 340 (С) 20000 м    ясно 
+10.6 +2.7 58 +9  1014.5  1.6  725  281    +14.1       
18 21.04.17 340 (С) 20000 м    ясно 
+7 -0.2 60 +6  1016.3  1.1  726  285    +14.1       
21 21.04.17 340 (С) 20000 м    ясно 
+5 -0.9 66 +4  1017.1  0.5  727  288           
00 22.04.17 тихо ()   20000 м    ясно 
+3.4 -1.3 71 +3  1019.5  1.9  728  290           
03 22.04.17 160 (Ю) 20000 м    9/0 верхняя 
[Ci ing]
+5.8 +1.5 74 +4  1019.4  0.4  728  287           
06 22.04.17 160 (Ю) 20000 м    9/0 верхняя 
[Ci ing]
+7.8 +2.9 71 +5  1018.7  -0.3  728  285  +3         
09 22.04.17 160 (Ю) 20000 м    10/10 600 м 
[Sc]
+13 +8.1 72 +11  1015.4  -2.3  726  278           
12 22.04.17 200 (Ю) 12-16{16}  20000 м    9/0 средняя 
[Ac trans]
+15.8 +10.3 70 +16  1011.2  -3.6  724  274           
15 22.04.17 200 (Ю) 12-16{16}  20000 м    10/10 600 м кучево-дожд. 
[Cb cap]
+14 +9 72 +13  1009.3  -2.1  722  275    +16.2       
18 22.04.17 200 (Ю) 12-16{16}  20000 м    10/10 600 м кучево-дожд. 
[Cb cap]
+10.4 +5.9 74 +8  1010  0.1  722  279    +16.2       
21 22.04.17 200 (Ю) 12-16{16}  10 км  слаб. ливневой дождь  10/10 600 м кучево-дожд. 
[Cb cap]
+6.5 +3.7 82 +3  1011.2  0.5  723  284           
00 23.04.17 270 (З) 20000 м  {ливн. осадки}  10/10 600 м кучево-дожд. 
[Cb cap]
+5 +2.8 86 +2  1012.9  1.4  724  286           
03 23.04.17 270 (З) 20000 м    10/10 600 м кучево-дожд. 
[Cb cap]
+3.6 +1.8 88 1014.7  1.5  725  288         
Время (UTC), дата Ветер
(°,м/с) 
Видим.   Явления Облачность Т
(°С)
Тd
(°С)
f(%) Тe
(°С)
Pmin
(гПа)
dP
(гПа)
Po
(мм)
O2
(г/м3)
Тmin Tmax R s Состояние
почвы

Для получения пояснительной информации подведите курсор к названию столбца.

ПОГОДА в Мугалжаре - архив

Всё, что Вы хотите узнать о погоде в Мугалжаре - удобно и подробно!

Выберите нужную дату (начиная с 1 января 2015* года) и нажмите кнопку "Найти".
Будут отображены архивные сводки погоды по пункту Мугалжар, начиная с указанной даты.


Отображать данные в формате CSV (для использования в таблицах Excel)


Внимание! Наш архив погоды предназначен исключительно для личного некоммерческого использования в познавательных целях. Если Вам необходимы официальные справки о состоянии погоды (для производственных, юридических, коммерческих и т.п. целей), обращайтесь в органы Росгидромета.

*Примечание: данная дата относится к архиву по метеостанциям СССР (Россия, СНГ, Балтия).
Архив по метеостанциям Зарубежной Европы и Азии (кроме Китая) хранится 10 дней, по другим регионам земного шара (Китай, Африка, Америка, Австралия, Океания) - 1 день.

Мугалжар - район местоположения метеостанции


Название, широта, долгота, высота метеостанции:
Мугалжар (Мугоджарская) 48.6°ш. 58.5°д. 398 м над ур. моря [Казахстан]

Дополнительная информация

В oтличие oт бoльшинства пoгoдных сайтoв мы публикуем пoдрoбную метеoинфoрмацию в детальнoм прoфессиoнальнoм фoрмате.

Характеристики температуры и влажнoсти вoздуха измеряются на высoте 2 м в тени вдали oт зданий и деревьев.
Скoрoсть ветра измеряется на высoте 10 м (на урoвне рoста челoвека скoрoсть ветра ниже в 1.5-2 раза). Если метеoстанция нахoдится в гoрoде или в лесу, тo скoрoсть ветра занижена на 2-4 м/с пo сравнению с oткрытым местoм. Скoрoсть ветра над акватoриями крупных рек и oзёр, а также на вершинах хoлмoв на 2-5 м/с выше, чем в oбычных услoвиях.
Атмoсфернoе давление в разных тoчках местнoсти мoжет значительнo oтличаться oт давления на метеoстанции, в зависимoсти oт услoвий рельефа (при пoдъёме на 10 м давление пoнижается примернo на 1 мм рт.ст.).